{"data":{"norad_id":60151,"intl_designator":"2024-120S","name":"STARLINK-32004","alt_names":[],"object_type":"PAYLOAD","status":"ACTIVE","operator":null,"country":"US","launch_date":"2024-06-27","launch_site_code":"AFETR","launch_vehicle":null,"mission":null,"orbit_class":"UNKNOWN","rcs_meters":null,"size_class":null,"mass_kg":null,"dimensions":null,"purposes":["comms"],"wikipedia_slug":null,"has_3d_model":false,"image_url":null,"decayed_at":null,"tle_current":{"epoch":"2026-09-21T20:15:21.498048Z","epoch_age_seconds":65727,"freshness":"FRESH","line1":"1 60151U 24120S   26264.84399882 -.00000765  00000+0 -11498-4 0  9999","line2":"2 60151  53.1586 125.5875 0001158  87.9720 272.1415 15.34399493126533","mean_motion":15.34399493,"eccentricity":0.0001158,"inclination_deg":53.1586,"raan_deg":125.5875,"arg_perigee_deg":87.972,"mean_anomaly_deg":272.1415,"bstar":-1.1498e-5,"rev_number":12653,"period_min":93.847789090738,"perigee_km":461.91257764405,"apogee_km":463.49691659268,"semimajor_km":6840.8417471184,"source":"CELESTRAK","updated_at":"2026-09-22T09:00:49.180002Z"}}}